Flag Weather past 2 weeks in Thessaloniki, Greece

Now
46 °F

Light rain. Mostly cloudy.


Feels Like: 46 °F
Forecast: 41 / 46 °F
Wind: 2 mph from North

Location: Thessaloniki Airport

Current Time: Nov 27, 2014 at 1:24:45 AM

Latest Report: Nov 27, 2014 at 12:50 AM


Visibility: N/A

Pressure: 30.21 "Hg

Humidity: 87%

Dew point: 43 °F

Location of ThessalonikiLocation

Historic Weather in Thessaloniki — Graph

°F

Thessaloniki temperature yesterday

Maximum temperature yesterday: 52 °F (at 12:20 PM)
Minimum temperature yesterday: 43 °F (at 12:20 AM)
Average temperature yesterday: 47 °F

Past Weeks' High & Low Weather Summary

 TemperatureHumidityPressure
High64 °F (Nov 17, 11:20 AM)100% (Nov 14, 9:50 AM)30.36 "Hg (Nov 14, 9:50 AM)
Low36 °F (Nov 23, 3:50 AM)35% (Nov 25, 3:50 PM)29.80 "Hg (Nov 13, 1:20 PM)
Average54 °F76%30.08 "Hg
* Reported Nov 11 11:20 PM — Nov 26 11:50 PM, Thessaloniki, Weather by CustomWeather, © 2014

Note: Actual official high and low records may vary slightly from our data, if they occured in-between our weather recording intervals... More about our weather records

Advertising

Thessaloniki weather history for previous 24 hours

 ConditionsComfort  
Time TempWeatherWind HumidityBarometerVisibility
11:50 PM
Nov 26
46 °FDrizzle. Mostly cloudy.No wind82%30.21 "HgN/A
11:20 PM46 °FDrizzle. Mostly cloudy.2 mph82%30.21 "HgN/A
10:50 PM46 °FDrizzle. Mostly cloudy.2 mph82%30.21 "HgN/A
10:20 PM46 °FDrizzle. Mostly cloudy.3 mph82%30.21 "HgN/A
9:50 PM46 °FLight rain. Mostly cloudy.3 mph82%30.21 "HgN/A
9:20 PM46 °FLight rain. Mostly cloudy.3 mph76%30.21 "HgN/A
8:50 PM46 °FLight rain. Passing clouds.3 mph76%30.18 "HgN/A
8:20 PM48 °FPassing clouds.3 mph71%30.18 "HgN/A
7:50 PM46 °FPassing clouds.5 mph76%30.18 "HgN/A
7:20 PM48 °FPassing clouds.5 mph71%30.18 "HgN/A
6:50 PM48 °FPassing clouds.5 mph71%30.18 "HgN/A
6:20 PM48 °FPartly cloudy.3 mph66%30.18 "HgN/A
5:50 PM48 °FPartly cloudy.2 mph66%30.18 "HgN/A
5:20 PM50 °FPassing clouds.2 mph58%30.18 "HgN/A
4:50 PM50 °FPartly sunny.2 mph54%30.18 "HgN/A
4:20 PM50 °FPartly sunny.3 mph54%30.15 "HgN/A
3:50 PM52 °FPartly sunny.6 mph50%30.18 "HgN/A
3:20 PM52 °FPartly sunny.6 mph50%30.18 "HgN/A
2:50 PM52 °FPartly sunny.7 mph50%30.18 "HgN/A
2:20 PM52 °FPartly sunny.5 mph50%30.18 "HgN/A
1:50 PM52 °FPartly sunny.6 mph50%30.18 "HgN/A
12:50 PM52 °FPartly sunny.9 mph50%30.18 "HgN/A
12:20 PM52 °FBroken clouds.10 mph54%30.18 "HgN/A
11:50 AM50 °FPartly sunny.3 mph67%30.18 "HgN/A
11:20 AM48 °FPartly sunny.No wind76%30.21 "HgN/A
10:50 AM48 °FMostly cloudy.No wind76%30.21 "HgN/A
10:20 AM46 °FMostly cloudy.2 mph87%30.21 "HgN/A
9:50 AM48 °FMostly cloudy.No wind82%30.21 "HgN/A
9:20 AM46 °FMore clouds than sun.No wind87%30.18 "HgN/A
8:50 AM46 °FMore clouds than sun.3 mph82%30.18 "HgN/A
8:20 AM45 °FMore clouds than sun.3 mph87%30.18 "HgN/A
7:50 AM45 °FMostly cloudy.2 mph87%30.18 "HgN/A
7:20 AM45 °FMostly cloudy.2 mph87%30.18 "HgN/A
6:50 AM45 °FPassing clouds.2 mph87%30.15 "HgN/A
6:20 AM45 °FPassing clouds.3 mph87%30.15 "HgN/A
5:50 AM45 °FPartly cloudy.3 mph87%30.15 "HgN/A
5:20 AM45 °FPartly cloudy.3 mph81%30.15 "HgN/A
4:50 AM45 °FPartly cloudy.3 mph81%30.15 "HgN/A
4:20 AM45 °FPartly cloudy.3 mph76%30.15 "HgN/A
3:50 AM45 °FPartly cloudy.3 mph76%30.15 "HgN/A
3:20 AM45 °FPartly cloudy.No wind76%30.18 "HgN/A
2:50 AM45 °FPartly cloudy.No wind76%30.18 "HgN/A
2:20 AM45 °FPartly cloudy.2 mph76%30.18 "HgN/A
1:50 AM45 °FPartly cloudy.3 mph76%30.18 "HgN/A
Weather by CustomWeather, © 2014

See weather overviewHow to use our weather pages